Wind_Speed
34 33 33 33 33 33 33 33 33 33 33 33 34 36 36 36 37 37 37 38 38 39 41 42 43 45 47 49 50 51 50 50 50 48 46 44 43 44 47 49 51 53 54 55 56 56 57 58 58 59 60 60 61 61 61 60 60 60 58 57 55 54 51 48 45 44 43 44 44 44 45 46 47 48 50 53 55 54 54 53 50 49 51 52 54
35 35 35 35 35 35 35 36 36 36 36 37 38 39 39 39 40 40 40 40 40 41 42 43 45 46 47 49 50 51 51 51 50 48 46 44 45 47 49 51 52 54 56 57 58 59 59 60 61 61 62 62 61 61 61 60 60 60 59 57 55 53 50 47 45 44 43 44 44 45 46 47 48 49 51 53 56 58 60 60 56 52 51 53 55
37 37 37 37 37 38 39 40 40 38 39 40 41 41 42 42 42 42 41 41 41 42 43 44 45 47 48 50 51 50 50 51 50 50 48 48 49 50 52 53 54 55 57 58 60 60 61 62 63 64 64 64 64 63 63 62 61 60 59 57 54 51 48 46 44 44 44 43 44 46 49 51 52 54 55 55 57 60 63 65 62 57 55 56 58
39 38 39 39 40 41 42 42 42 41 42 43 44 44 44 44 44 43 43 43 43 44 45 46 47 48 49 50 51 50 50 50 50 51 51 51 52 53 54 55 57 58 59 60 61 62 63 64 65 66 66 66 66 65 65 64 63 62 61 58 55 51 48 46 43 42 44 45 47 50 54 57 59 60 60 59 60 63 66 66 65 63 62 62 61
41 40 41 42 43 44 44 44 43 44 45 46 46 46 46 46 46 46 45 45 45 46 48 49 49 50 50 51 50 49 48 50 50 51 52 53 54 55 56 58 59 60 61 61 62 63 64 65 66 67 68 68 69 68 68 67 66 64 62 59 57 53 49 46 44 43 45 47 49 52 57 60 61 62 63 63 64 67 68 68 68 67 66 64 63
44 43 43 45 46 46 45 45 45 46 48 48 48 49 49 48 48 48 48 47 48 49 51 52 53 54 54 54 51 47 47 50 51 51 52 53 55 56 58 60 61 62 63 63 63 64 65 66 67 67 68 69 70 69 68 68 67 66 64 60 58 55 50 47 46 45 46 48 50 53 57 60 62 64 66 67 69 70 71 71 72 71 69 68 68
46 45 46 48 49 48 47 47 47 48 50 51 51 51 51 50 50 49 49 49 49 50 52 55 56 57 57 56 51 46 48 52 52 52 52 53 55 57 60 61 63 64 65 65 66 66 67 67 67 68 68 69 70 70 69 68 68 68 65 60 58 56 53 51 47 45 47 50 53 56 58 61 64 66 69 71 72 73 73 74 74 74 73 73 73
49 49 50 51 51 50 49 48 49 49 51 52 52 53 52 52 51 50 50 50 50 51 53 55 57 60 59 55 52 51 53 55 55 54 54 53 55 57 60 62 64 65 66 66 67 68 68 68 68 68 69 69 69 69 68 68 68 69 67 63 61 59 57 54 50 46 46 49 53 58 61 64 66 68 70 72 73 74 75 75 75 75 75 76 76
51 52 53 53 53 51 51 51 51 51 52 53 54 54 54 53 52 52 51 52 52 52 53 54 58 60 57 54 56 58 59 59 58 57 55 54 55 58 60 63 65 66 67 67 68 69 69 68 68 69 69 69 68 67 67 68 69 70 70 68 65 63 61 59 58 55 53 52 54 57 59 62 65 67 69 72 74 75 76 76 76 76 76 77 78
53 54 55 54 53 53 53 54 54 54 54 54 55 55 55 55 54 54 54 54 54 54 54 55 56 56 54 57 61 62 61 61 60 59 57 55 56 58 60 63 65 66 67 67 68 69 69 69 69 69 70 69 68 67 67 69 70 72 72 72 70 68 66 66 66 66 64 61 61 61 60 60 61 62 65 69 72 74 76 77 77 77 78 78 80
57 57 57 57 55 55 55 56 57 57 56 56 57 57 57 57 56 56 56 57 57 57 57 56 55 55 58 61 63 62 61 62 62 60 59 57 57 59 61 63 65 66 67 67 68 68 69 70 70 70 70 70 69 68 68 70 71 73 74 75 75 74 73 72 72 73 72 69 68 67 66 64 63 63 63 65 67 70 72 74 75 76 77 78 79
60 60 60 60 58 57 57 58 59 59 58 58 59 59 60 59 58 58 58 58 59 59 59 59 57 59 62 63 62 62 62 62 62 61 60 59 58 60 62 64 65 66 67 67 68 69 69 70 70 71 70 70 70 70 70 72 73 75 75 76 77 78 79 78 77 78 77 75 72 70 69 67 66 66 66 66 67 68 70 71 72 73 73 75 76
62 62 62 62 60 58 59 59 60 60 60 60 60 61 62 62 62 61 61 61 61 62 62 62 61 61 63 63 62 62 61 61 62 62 61 60 60 61 64 65 66 67 68 68 69 70 71 71 71 71 71 71 72 73 74 75 76 77 78 78 79 80 81 81 80 80 80 77 74 71 69 67 66 66 67 67 68 69 70 71 73 73 74 75 76
63 64 64 63 62 61 61 61 61 61 61 61 62 63 64 65 65 65 65 64 64 65 65 65 65 64 64 65 64 63 62 62 63 64 64 63 62 64 66 67 68 69 69 70 71 71 72 72 72 72 71 72 75 77 77 78 79 80 80 81 81 81 82 82 82 82 81 78 74 70 68 67 66 66 67 67 68 69 70 71 72 74 74 75 76
64 66 66 65 64 64 63 62 62 62 63 63 64 65 66 67 68 68 68 67 67 68 68 68 68 67 67 67 66 66 64 64 64 66 67 66 66 67 68 69 70 71 72 73 73 73 73 73 72 72 73 75 78 80 80 80 81 82 82 82 82 82 82 82 83 83 81 76 72 69 67 66 66 66 66 67 67 68 69 69 71 72 73 74 77
65 67 67 67 66 65 64 64 64 64 65 66 66 67 68 70 71 71 71 70 69 70 70 70 69 70 69 69 69 69 68 66 66 68 68 69 70 71 71 72 73 74 75 76 76 75 75 74 73 74 76 79 80 80 82 83 83 83 83 82 82 82 82 83 83 82 79 74 70 68 67 67 68 67 67 68 68 68 69 70 72 73 74 76 78
67 68 68 68 67 66 65 66 66 66 67 68 68 69 71 72 73 74 75 73 72 72 72 72 70 70 70 70 71 71 69 68 69 70 70 71 72 73 74 75 75 76 77 77 77 77 77 76 76 77 79 80 81 82 83 84 84 85 84 84 83 83 83 83 82 79 76 72 70 69 69 69 70 70 70 70 71 71 71 73 75 77 77 78 80
68 69 69 68 67 67 67 68 68 69 69 70 71 72 73 74 76 77 78 76 74 73 73 73 71 69 70 71 72 72 71 72 73 73 72 73 74 75 76 76 76 77 78 79 79 79 78 78 79 80 81 81 83 85 85 86 86 86 85 85 84 84 84 82 79 76 73 71 70 71 71 71 72 72 72 73 74 74 75 76 78 79 80 79 80
68 69 70 70 69 69 69 69 70 71 71 72 73 74 76 77 78 79 80 79 78 76 74 72 71 70 71 72 73 73 73 74 75 74 74 75 75 76 77 77 78 79 79 80 80 80 80 80 81 81 82 83 85 86 87 88 87 87 86 86 85 83 82 79 76 74 73 73 73 73 73 73 73 74 75 76 77 77 77 78 79 80 79 78 76
69 70 70 71 71 70 70 71 71 72 73 74 76 77 78 79 80 81 80 81 81 78 74 72 71 72 72 72 72 73 74 74 74 75 75 77 77 78 79 79 80 80 80 81 81 81 81 82 83 83 83 84 86 87 88 89 88 88 87 85 83 81 80 78 76 75 75 75 76 76 76 75 75 76 77 78 78 79 79 79 79 78 77 75 73
71 72 72 72 72 72 72 72 73 74 75 77 78 80 80 81 81 81 80 80 80 77 73 72 73 73 73 72 72 73 73 74 75 76 77 78 79 80 80 81 81 81 81 81 82 82 82 84 85 85 85 86 87 89 89 89 88 88 86 84 82 80 78 78 77 77 77 77 78 78 78 78 77 77 78 79 79 79 79 78 77 77 75 73 71
74 74 74 73 73 73 74 74 75 76 77 79 81 82 82 82 82 81 80 79 76 73 72 73 74 74 73 73 73 74 75 76 76 77 78 79 80 81 81 81 82 82 82 83 83 84 85 86 87 86 87 88 90 90 90 89 88 87 85 83 81 80 79 79 79 79 79 79 80 80 80 79 79 79 80 80 80 79 78 78 78 77 74 70 66
77 76 75 74 74 74 75 76 77 78 79 81 83 83 83 82 81 80 79 77 75 74 75 75 75 74 73 73 73 75 76 76 77 78 79 80 81 81 82 83 83 84 83 84 85 86 87 87 88 88 89 90 91 90 90 89 88 87 84 82 81 81 81 81 81 81 81 81 81 81 81 81 81 81 81 80 80 79 78 79 79 76 71 66 61
78 77 76 76 75 76 76 77 79 80 82 83 84 84 83 81 79 78 78 77 76 77 78 76 74 74 74 74 75 76 76 77 78 79 80 82 82 83 83 83 84 84 84 85 87 87 87 88 88 90 91 91 91 90 89 88 87 85 83 82 81 82 82 82 82 82 82 82 82 82 82 82 82 82 81 81 80 79 79 78 76 71 66 61 57
79 78 77 77 77 76 77 78 80 82 83 83 84 84 84 81 79 77 77 77 78 79 77 76 74 74 74 75 76 76 77 78 79 80 82 83 84 84 84 84 84 85 86 87 87 88 88 90 91 92 92 90 89 89 88 87 85 83 82 82 83 83 83 83 83 84 83 83 82 81 81 81 81 81 80 79 78 78 77 74 69 64 60 56 53
80 79 78 78 78 78 78 80 81 82 83 83 83 82 82 80 78 77 77 78 79 78 77 76 75 74 75 76 77 77 79 80 81 82 83 84 83 84 84 85 86 86 87 88 89 90 91 92 92 91 89 88 88 87 86 84 82 81 82 84 84 84 84 84 84 85 84 82 81 80 80 80 80 79 78 76 75 73 70 66 62 59 56 52 49
80 80 80 80 79 79 79 79 80 80 81 81 80 78 77 77 76 76 77 78 79 78 76 75 75 75 76 77 78 78 80 81 82 83 83 83 83 85 86 87 87 88 89 90 92 92 92 91 90 89 88 87 87 85 83 81 80 81 83 84 85 84 84 84 84 83 82 80 79 79 78 77 76 75 74 72 70 67 63 59 57 55 52 49 45
81 81 82 81 81 80 79 79 78 77 77 77 76 74 73 73 74 75 77 78 78 77 76 75 76 77 78 78 79 79 80 81 82 83 83 84 85 86 87 87 88 89 91 92 92 91 90 90 89 88 87 85 82 80 79 79 80 82 83 84 84 85 85 84 83 82 80 78 77 77 76 74 72 70 68 66 63 60 57 55 53 51 49 46 43
82 82 82 81 80 78 78 78 76 74 75 77 75 73 71 72 74 77 78 78 77 77 77 77 78 79 80 80 80 80 81 82 82 83 84 85 86 87 87 88 89 90 91 91 91 91 91 90 88 86 83 80 79 79 80 81 82 83 83 84 84 86 86 85 84 82 79 78 76 75 73 71 68 66 63 60 58 55 53 52 50 48 46 44 41
82 81 80 80 78 75 74 76 75 74 75 76 74 73 74 75 77 79 78 77 76 77 78 79 80 80 80 81 81 82 82 82 82 83 85 86 87 88 88 89 91 91 91 91 91 91 89 87 84 81 80 80 80 80 82 82 82 83 83 84 84 85 85 84 82 79 76 74 72 70 68 65 63 61 59 56 54 52 51 49 47 46 44 42 40
81 80 79 79 78 75 74 75 76 75 76 76 76 77 78 79 78 78 76 76 77 78 79 80 80 80 80 81 82 83 82 81 82 83 85 86 88 89 90 91 91 91 91 90 89 87 84 82 80 80 81 82 82 83 83 83 83 83 83 83 83 82 81 79 78 75 72 70 67 65 63 60 58 56 55 53 51 50 48 46 45 43 42 40 38
80 80 79 78 78 76 74 75 76 77 77 79 80 82 81 79 77 75 75 75 76 77 78 79 79 79 81 82 82 81 80 81 83 84 86 88 90 91 91 91 91 91 90 88 85 83 82 81 81 82 83 84 84 84 84 84 84 84 84 83 83 81 78 75 73 70 67 64 62 60 58 56 54 52 51 49 48 47 46 44 43 42 40 38 36
79 79 78 77 77 76 75 76 77 77 77 78 80 80 78 75 74 73 73 74 75 76 77 78 78 80 82 82 80 79 80 81 83 85 88 90 91 92 91 91 90 89 86 84 83 83 84 84 84 84 84 84 84 85 85 85 85 84 84 83 81 79 76 72 69 66 63 60 58 56 54 51 50 49 47 46 45 45 44 42 41 40 39 36 34
78 78 76 73 72 72 72 72 73 73 73 73 74 74 72 71 71 71 72 72 74 76 77 78 80 81 81 79 78 78 80 82 84 88 91 91 91 91 90 89 87 85 84 84 84 85 85 85 84 84 84 85 85 86 86 86 85 84 83 82 79 75 72 68 65 62 59 56 54 52 49 47 46 45 44 44 44 43 42 41 39 38 36 34 32
76 76 75 73 71 70 70 70 71 71 71 69 68 68 68 69 69 70 71 73 74 76 79 80 81 80 78 77 77 78 80 83 87 90 91 90 89 89 88 85 84 84 85 86 86 86 86 85 84 85 85 86 86 86 86 85 85 83 82 80 75 71 67 63 60 57 54 52 50 47 45 44 43 43 42 42 42 41 40 39 38 36 34 32 30
71 72 72 73 72 71 70 70 70 68 66 65 65 66 67 67 69 71 73 74 76 79 81 81 79 77 76 77 78 80 82 86 89 90 90 89 88 86 84 83 84 85 86 86 86 86 86 86 86 86 87 86 85 85 84 84 84 82 79 76 71 66 62 58 56 53 51 49 46 44 42 41 41 41 41 41 40 40 39 37 35 34 32 30 29
67 67 68 68 68 67 67 66 64 63 62 63 64 66 66 68 71 74 75 77 79 81 80 78 76 76 77 79 80 83 85 88 91 91 90 89 86 84 83 84 85 86 86 87 87 87 87 87 88 88 87 86 85 84 83 83 82 79 75 71 67 63 58 55 52 51 49 47 44 42 40 40 40 39 39 39 39 38 37 36 34 32 30 28 27
63 63 62 62 61 61 60 60 60 61 62 64 65 67 69 72 75 76 77 78 79 78 77 75 76 78 79 81 83 85 87 90 92 92 90 87 84 83 84 86 87 87 88 88 87 87 88 89 89 88 87 86 85 84 83 82 79 76 71 66 62 59 56 54 51 48 46 45 43 41 39 38 38 38 38 38 37 36 35 33 32 30 29 27 25
58 59 60 60 60 60 60 60 61 63 64 66 68 71 73 76 76 76 76 77 76 76 76 77 79 81 82 83 85 86 89 92 92 90 87 85 84 85 86 87 88 89 89 89 88 88 89 89 88 86 85 85 84 83 81 78 74 70 65 61 57 55 54 52 50 47 45 43 41 39 38 37 36 36 36 36 36 34 33 31 30 29 27 25 24
58 61 62 63 63 63 63 63 64 65 67 69 72 74 75 75 75 75 75 75 76 76 78 79 82 83 85 85 86 89 92 92 90 87 84 84 85 86 87 88 89 90 90 90 90 90 90 89 86 84 83 83 82 80 77 72 68 63 59 56 54 52 51 50 48 46 44 42 39 37 36 35 35 35 35 35 34 33 31 29 28 27 26 25 23
61 63 64 64 65 66 66 67 69 70 71 71 72 73 72 72 73 74 75 76 77 78 79 81 84 85 87 88 90 92 92 90 86 83 82 83 85 87 88 90 90 90 90 91 92 91 89 87 84 82 81 81 78 75 70 65 61 57 54 52 50 50 49 48 46 44 42 40 38 36 34 34 34 34 34 33 33 31 29 27 26 25 25 23 22
64 64 64 65 66 67 67 68 68 68 68 68 69 70 71 73 74 75 76 77 78 79 80 82 84 86 88 91 93 93 91 87 85 84 85 86 88 90 91 91 92 92 92 92 91 89 86 84 82 80 79 76 72 68 63 59 55 52 50 49 48 47 47 46 44 42 40 37 36 34 33 32 33 33 32 32 31 29 28 26 25 24 23 22 21
59 59 59 60 61 62 63 64 64 65 67 69 70 71 73 73 74 75 76 77 78 79 80 81 84 88 91 93 93 92 90 88 87 88 89 91 93 93 92 91 91 92 91 90 88 85 83 81 80 78 74 70 66 61 57 53 50 48 47 46 46 45 44 43 41 40 38 36 34 33 32 31 31 31 31 30 30 28 26 25 24 23 22 22 21
57 58 60 61 62 63 64 65 66 67 68 69 70 71 71 72 73 75 77 78 80 81 82 84 88 92 92 91 90 89 88 88 90 92 94 96 95 93 89 88 88 88 87 86 84 82 80 79 77 73 69 64 60 55 52 49 47 46 45 44 44 43 43 41 40 37 35 34 33 31 30 30 30 30 30 29 28 27 26 24 23 22 21 21 20
60 62 63 63 63 63 63 64 65 66 67 68 70 71 72 74 76 78 80 82 84 85 87 90 92 92 89 88 88 88 89 91 93 95 97 98 95 90 86 85 84 84 82 81 80 79 78 75 72 67 62 58 54 51 48 46 44 43 43 43 42 41 40 40 39 36 34 33 32 30 29 28 28 28 28 28 27 26 25 24 23 22 21 21 20
62 62 63 63 63 63 64 66 67 69 70 71 73 74 76 77 79 81 83 85 88 90 93 94 93 89 88 88 90 91 93 95 96 98 98 96 91 87 84 82 80 80 79 78 77 76 74 71 66 61 56 52 49 47 46 44 43 42 41 41 40 39 38 38 37 36 34 32 31 30 29 28 27 27 27 26 26 25 24 23 22 21 21 20 19
64 64 64 64 65 66 68 70 71 72 73 74 75 77 78 80 82 84 86 88 91 94 95 93 90 88 90 93 95 96 98 99 99 99 98 93 88 84 81 79 77 77 77 76 74 72 68 64 59 55 51 49 47 45 44 42 41 41 40 39 39 38 36 35 35 34 33 32 31 30 29 28 27 26 26 25 25 24 23 22 22 21 20 20 19
66 67 67 68 68 70 71 72 73 75 76 76 77 79 81 83 85 88 89 91 94 95 93 91 91 93 96 98 99 101 102 101 100 98 95 90 85 81 79 77 76 75 74 72 70 66 62 57 53 50 48 46 45 44 42 41 40 40 39 38 37 36 35 33 33 33 32 32 31 30 29 28 27 26 25 25 24 24 23 22 21 21 20 19 18
69 70 71 72 73 74 75 75 77 78 79 80 81 83 85 87 89 91 93 95 96 96 94 94 96 98 100 101 103 104 103 101 99 96 91 86 82 79 77 76 75 74 71 68 64 60 56 52 49 47 45 44 44 43 41 40 39 39 39 38 37 35 34 33 32 31 31 31 30 30 29 28 27 26 25 25 24 23 22 21 21 20 20 19 17
74 75 76 77 78 78 79 80 81 83 84 85 87 88 89 91 93 94 96 98 98 97 97 97 99 101 103 105 106 105 102 99 97 93 88 83 80 78 76 75 74 71 68 63 59 54 51 48 46 44 43 42 42 41 40 39 39 39 38 38 37 35 34 33 32 31 30 29 29 29 29 28 27 26 25 24 24 23 22 21 20 20 19 18 17
79 79 80 81 81 82 83 84 85 86 88 89 91 92 93 94 96 97 98 98 98 98 99 100 102 104 106 107 106 103 100 97 93 90 85 81 78 77 76 74 71 68 64 59 54 50 47 45 43 42 41 40 40 40 39 39 38 38 37 37 37 35 34 33 32 31 30 29 28 28 28 28 27 26 25 24 24 23 22 21 20 19 19 18 16
Wind_Direction
291 291 292 293 296 298 299 299 299 300 302 303 304 305 307 307 307 308 310 311 312 311 311 312 313 313 314 315 315 315 315 315 315 315 313 312 312 315 319 322 323 323 322 321 319 317 316 314 313 312 312 312 312 311 311 312 312 312 312 311 309 307 305 301 297 294 292 292 289 285 282 282 284 285 284 285 285 286 287 286 284 282 282 283 285
288 289 291 293 295 297 296 297 298 300 303 305 305 306 308 309 309 311 312 312 312 311 311 312 312 313 314 315 315 315 314 315 316 316 314 312 314 317 320 322 322 322 321 320 319 318 316 315 314 314 315 315 315 314 315 316 316 316 315 314 312 309 307 302 297 293 291 290 287 284 282 282 282 281 282 284 285 285 285 285 284 283 282 282 282
286 288 291 292 294 295 294 296 298 302 304 305 305 306 307 308 310 311 311 310 309 309 310 310 312 313 315 316 315 313 313 313 315 315 314 314 315 317 319 320 320 319 319 319 319 318 318 317 316 316 316 317 316 316 317 317 317 316 316 315 314 312 307 301 296 292 291 289 287 285 283 280 279 278 280 283 284 284 284 284 285 284 283 282 282
284 287 290 291 293 293 293 296 299 302 303 303 304 305 305 307 308 309 309 308 308 308 309 310 311 313 314 315 313 312 311 312 313 313 313 313 313 315 316 316 316 317 317 318 319 319 318 317 317 317 317 316 316 316 317 317 318 317 318 318 317 314 309 303 296 290 288 288 287 285 282 279 278 279 280 282 283 283 282 282 284 284 283 284 284
284 286 288 289 290 291 293 296 299 301 301 301 302 303 304 305 307 308 308 307 308 308 309 310 312 313 313 313 312 310 311 312 312 312 311 311 311 312 313 314 314 315 316 318 318 318 317 317 317 317 316 316 316 317 317 318 317 317 317 317 316 314 310 305 298 290 286 285 284 281 279 278 278 279 279 280 280 280 280 280 282 283 283 285 284
283 285 287 287 288 290 292 295 297 299 299 300 300 301 302 304 306 307 307 307 308 309 310 311 313 313 314 314 311 309 311 313 313 312 310 309 309 310 310 312 313 314 315 317 317 317 317 317 317 316 315 315 316 316 316 316 315 315 316 317 315 314 312 310 303 295 289 285 282 279 278 277 277 277 277 277 278 278 278 280 281 282 283 284 283
282 284 285 285 286 288 291 293 295 296 297 298 299 299 301 302 304 305 305 306 306 307 310 311 312 313 315 315 313 309 311 313 312 312 311 310 309 309 309 310 312 313 315 316 317 317 317 317 316 315 315 314 315 315 315 315 315 316 318 319 318 317 316 316 312 302 294 289 285 282 280 279 279 278 278 278 279 279 280 280 281 282 284 285 284
281 282 282 283 284 287 289 291 292 293 294 295 296 297 298 299 301 301 302 303 304 306 309 310 312 313 314 315 313 311 312 313 312 312 312 311 309 308 308 309 311 312 314 316 316 316 316 316 315 314 314 314 314 314 314 314 315 317 318 319 319 319 318 318 314 306 299 295 291 286 284 282 280 280 279 279 280 280 280 281 281 282 283 283 283
279 280 280 281 283 286 287 288 289 290 291 291 292 293 295 297 298 299 301 302 303 306 307 308 311 313 312 313 314 314 313 312 311 311 311 310 308 307 308 309 311 313 315 316 315 315 315 314 313 313 313 313 313 313 313 314 316 317 317 318 318 318 317 316 313 308 303 300 297 294 290 286 283 281 280 279 279 280 280 281 282 282 281 281 281
277 278 279 280 282 285 286 287 288 288 288 289 290 292 294 296 298 299 301 302 303 305 306 308 312 311 310 312 313 313 312 310 310 310 310 309 308 307 309 310 311 313 315 315 315 314 314 313 312 312 312 312 312 312 313 314 315 316 316 316 316 316 315 314 313 312 309 306 304 303 301 296 290 286 283 281 281 281 280 281 281 281 281 281 281
275 276 278 279 281 283 285 286 287 288 289 290 291 293 294 296 297 299 300 301 303 304 305 308 309 308 307 309 311 310 309 308 308 309 309 309 308 308 309 310 312 314 315 315 315 314 313 313 312 312 312 311 311 312 312 313 313 314 314 314 315 315 315 315 315 314 313 312 310 309 306 302 298 294 290 288 286 284 283 282 281 281 281 281 281
274 275 277 279 280 282 284 286 287 288 289 291 293 294 295 296 297 298 299 300 302 303 305 306 307 306 306 308 309 309 308 307 307 308 308 309 309 308 309 311 312 314 315 316 315 314 313 312 312 311 311 310 310 310 311 311 311 312 312 312 313 313 314 314 314 314 314 313 311 310 307 304 301 297 295 293 290 288 287 286 285 284 284 284 284
272 274 276 278 280 282 283 285 286 288 290 291 293 294 295 296 297 298 299 300 302 303 304 305 306 306 306 306 307 308 307 306 307 308 309 309 309 308 309 311 312 314 316 316 315 314 313 312 312 311 310 310 310 310 310 310 311 311 311 311 311 311 311 312 312 313 312 311 310 309 306 304 301 297 295 293 292 290 289 289 289 288 288 288 287
271 273 276 278 280 282 283 285 287 288 290 291 292 293 294 295 297 298 299 300 302 303 304 305 306 306 305 305 306 307 307 306 307 309 310 310 310 309 310 312 313 315 316 315 314 314 313 312 312 311 310 311 311 311 311 311 311 311 311 310 310 310 310 311 311 311 310 310 309 308 306 304 302 299 297 296 294 293 292 291 290 290 290 289 288
271 273 275 277 279 281 283 285 287 289 290 290 291 292 294 295 296 297 299 300 301 302 303 304 305 305 305 306 306 307 308 308 309 310 311 312 312 312 312 313 314 316 316 315 315 314 313 313 313 312 311 311 311 311 311 311 311 311 311 310 310 310 310 310 310 310 309 309 309 308 306 305 303 302 300 298 296 295 294 293 291 290 290 290 289
271 273 275 276 278 281 283 285 287 289 289 290 291 292 293 294 295 297 298 299 301 302 303 304 304 305 306 306 307 308 310 310 310 311 312 313 313 313 314 314 316 317 316 315 315 314 313 312 312 310 310 310 310 311 311 311 311 311 311 311 311 311 310 310 310 310 310 310 309 308 307 305 304 302 301 299 297 296 295 293 292 291 291 290 290
270 272 274 276 279 281 283 285 286 287 288 289 290 291 292 293 295 296 296 298 300 302 303 304 304 306 307 308 308 310 311 312 312 312 313 313 313 314 315 315 316 316 315 314 313 312 312 311 310 309 309 310 310 310 311 311 311 311 311 311 311 311 311 311 311 311 311 310 309 308 307 306 304 302 300 298 297 295 294 292 291 291 291 291 290
270 272 275 277 279 281 283 284 286 287 288 289 290 291 292 293 294 295 296 298 300 302 303 304 305 307 308 309 310 311 312 312 312 313 313 313 313 314 314 314 314 313 313 312 312 312 311 311 309 309 310 310 310 311 311 311 311 312 312 312 312 312 312 312 312 312 311 310 309 308 307 306 304 302 300 298 296 295 294 293 292 292 293 293 293
271 273 275 277 279 281 282 284 285 286 288 289 290 291 292 293 294 295 297 299 300 301 303 304 305 307 309 310 311 311 312 312 312 312 312 312 312 312 312 312 312 312 312 311 311 311 310 309 309 309 309 309 310 311 311 311 312 312 313 313 312 312 312 312 312 312 310 309 308 307 306 305 304 302 300 298 297 296 296 296 295 296 297 297 297
272 274 275 276 279 281 283 284 285 287 288 290 291 291 292 294 295 296 299 300 301 303 305 305 306 308 310 311 311 310 311 310 310 310 310 310 310 311 311 311 311 311 311 311 310 310 309 308 308 308 308 308 309 310 310 311 312 312 313 312 312 312 312 312 311 310 309 308 307 306 305 304 303 302 300 298 298 298 299 299 300 300 301 300 299
273 274 275 276 279 282 283 284 286 288 289 290 290 291 293 294 295 297 299 300 302 304 305 306 307 309 310 310 309 309 309 309 308 308 308 309 309 310 310 311 310 310 310 309 309 309 308 308 308 308 308 308 309 310 310 311 312 312 312 312 311 311 311 311 310 309 308 307 306 306 305 304 303 301 300 299 300 300 301 302 303 304 303 301 299
273 274 276 277 280 282 283 285 287 288 288 290 290 291 292 293 295 297 298 299 301 302 302 303 305 307 308 308 308 308 308 308 307 307 307 308 308 309 309 309 309 309 309 308 308 308 308 308 308 308 308 309 309 310 310 311 311 311 311 311 310 310 310 310 310 309 308 307 307 306 305 304 303 302 301 301 301 302 303 304 305 305 303 301 299
272 275 276 278 280 282 284 285 287 288 288 289 290 291 292 293 295 296 297 298 299 299 300 302 304 306 306 307 307 307 307 306 306 306 306 307 307 308 308 308 308 308 308 308 307 307 308 308 308 308 309 309 310 310 311 311 311 311 311 310 310 310 310 309 309 308 308 308 307 306 305 304 303 302 302 302 302 303 304 304 304 304 302 300 299
272 274 276 278 280 282 283 285 286 287 287 288 289 290 291 292 294 294 295 297 298 299 301 303 304 304 305 305 305 305 305 305 304 305 305 306 306 307 307 307 307 307 307 307 307 307 308 308 308 309 309 310 310 310 311 311 311 311 310 310 309 309 309 309 309 309 309 309 308 306 305 303 302 302 302 302 303 303 303 303 303 302 301 299 298
271 273 275 277 279 281 282 284 285 286 286 287 288 289 290 291 292 292 293 295 297 299 301 302 302 303 303 304 304 304 304 303 303 304 304 305 305 306 306 306 307 307 307 307 307 307 308 308 309 309 310 310 311 310 310 311 311 310 309 309 308 308 309 310 310 311 310 309 307 305 303 301 301 301 301 302 302 302 302 302 302 301 300 299 297
270 272 274 276 277 279 280 282 283 284 285 285 286 287 289 290 291 292 292 294 296 298 299 299 300 301 302 302 302 302 302 302 302 303 303 304 304 305 306 307 307 307 307 307 307 308 309 309 309 310 310 310 310 310 310 310 310 309 308 308 308 309 311 312 312 311 309 307 305 303 301 300 300 301 301 301 301 301 302 302 301 300 299 298 296
270 272 273 274 275 277 278 280 282 283 283 284 285 287 289 290 290 291 292 294 295 297 298 298 299 299 300 300 301 301 301 301 301 302 302 303 304 305 306 306 306 307 307 308 308 309 309 310 310 310 310 310 309 310 310 310 309 308 308 308 309 311 312 312 311 309 307 305 303 301 300 300 300 300 301 301 301 301 301 301 300 299 298 297 295
270 271 272 273 274 276 277 278 280 281 281 282 284 286 287 287 288 290 292 293 295 296 296 297 297 298 299 300 300 300 300 300 300 301 302 303 304 305 305 306 306 307 308 309 309 309 310 310 310 309 309 309 309 309 309 308 308 308 308 309 311 311 311 311 309 308 306 304 302 302 301 301 301 301 301 301 301 302 301 301 300 298 297 296 295
268 269 271 273 274 275 276 277 278 278 278 280 282 283 284 285 287 290 291 293 294 294 295 296 297 298 298 299 299 299 299 299 300 301 302 302 303 304 305 306 307 308 309 309 309 310 310 309 309 309 309 309 309 309 308 308 308 309 310 311 313 313 312 311 310 308 307 305 304 303 302 302 302 302 302 302 301 301 301 300 299 297 296 296 294
268 269 271 272 273 273 274 275 276 276 277 278 280 282 282 284 286 288 290 291 292 292 294 295 296 297 297 298 299 299 299 299 299 300 301 302 303 304 305 307 308 309 309 309 309 309 309 309 309 309 310 309 309 309 309 309 310 311 312 313 313 312 311 310 308 307 305 304 303 302 302 302 302 301 301 301 301 300 300 299 298 297 295 294 292
267 268 269 271 272 272 273 274 274 275 276 278 280 282 283 285 286 287 289 290 291 292 293 295 295 296 297 298 298 299 299 299 299 300 302 303 304 305 307 308 309 309 309 309 309 310 309 309 310 310 310 309 309 309 309 310 311 312 312 312 311 310 309 308 306 305 304 303 302 301 301 300 300 300 300 300 299 299 299 298 297 296 295 293 291
266 267 268 269 271 272 272 273 274 275 277 279 281 283 284 285 286 287 289 290 291 292 293 294 294 295 297 298 298 298 298 299 300 302 303 305 306 307 308 308 309 309 309 310 311 310 310 310 310 310 310 310 310 310 311 312 312 313 312 312 311 310 309 307 306 304 303 301 300 300 299 299 299 298 298 298 299 298 298 298 297 295 293 291 288
265 267 268 269 271 272 272 273 275 278 280 282 283 284 285 286 287 288 289 290 290 291 292 293 294 295 297 298 298 298 299 301 302 304 305 307 307 308 308 309 309 310 311 312 312 311 310 310 310 310 310 310 311 312 312 313 313 312 312 312 311 311 310 308 307 305 303 302 301 300 299 299 298 298 298 298 298 298 298 298 296 294 292 290 287
266 267 268 269 270 271 272 274 277 279 282 283 284 285 286 287 288 289 289 289 290 291 292 293 294 296 297 298 299 300 301 302 304 306 307 308 308 308 309 310 311 312 312 312 311 310 310 310 310 310 310 311 313 313 313 313 313 313 312 312 312 311 310 308 307 305 304 303 302 301 300 299 298 298 298 298 298 298 298 297 296 293 291 288 285
266 267 268 268 269 269 271 274 276 279 282 283 282 282 284 286 287 288 288 289 290 291 292 294 296 297 298 299 300 301 302 304 306 307 308 307 308 309 310 311 312 312 312 311 311 311 311 311 311 311 312 313 314 314 313 313 313 313 313 312 312 311 310 308 307 306 305 304 303 302 301 299 298 298 298 298 298 298 298 296 295 293 290 288 284
266 267 268 269 270 271 273 276 278 279 280 279 279 281 283 285 285 286 287 289 290 291 293 295 297 298 299 299 300 301 302 304 306 307 307 308 309 310 310 311 311 311 311 311 311 311 312 312 313 313 313 313 313 313 313 313 313 313 313 313 312 311 310 309 308 307 306 305 303 302 301 300 299 299 299 299 299 298 297 296 294 292 290 287 282
266 268 270 271 273 275 277 277 277 276 276 276 277 279 281 282 283 285 287 289 290 292 294 296 297 298 299 299 300 300 302 304 306 307 308 308 309 309 310 310 310 310 311 311 311 312 313 314 314 314 314 314 314 313 313 313 313 313 313 313 312 311 311 311 310 308 307 305 304 303 302 300 299 299 299 299 298 298 296 295 294 292 289 286 281
267 270 271 273 274 275 275 274 273 273 274 275 276 277 278 280 283 285 288 289 291 293 296 297 298 299 299 299 300 301 302 304 306 307 307 308 309 309 309 309 309 310 310 311 312 313 314 314 314 314 314 314 313 313 313 313 313 313 313 312 312 312 312 311 310 309 307 306 305 303 302 301 300 299 298 298 297 296 296 295 294 292 289 285 280
266 266 267 268 269 269 268 269 269 270 272 273 274 276 279 281 284 286 288 290 292 294 296 297 298 298 298 299 300 301 302 304 305 306 307 308 309 309 309 308 309 309 310 311 312 314 314 314 314 314 313 313 313 313 313 313 312 312 312 312 312 312 312 311 311 309 308 306 304 303 301 300 299 298 297 296 296 296 295 295 294 292 289 285 279
260 261 262 264 264 264 263 264 266 268 270 273 275 278 280 282 284 286 288 290 292 294 295 296 296 296 297 298 300 301 303 304 305 306 308 308 308 308 308 308 308 309 311 312 313 313 313 313 313 312 312 312 312 312 312 311 311 311 311 311 312 312 311 311 311 310 307 305 304 302 300 299 298 297 296 296 296 296 297 297 296 293 289 284 278
257 259 260 262 262 262 262 263 266 268 272 275 277 278 279 281 283 285 287 289 292 293 294 294 295 296 297 299 301 302 303 304 305 306 307 307 307 307 307 307 308 310 311 312 312 312 312 312 312 312 312 311 311 311 311 310 310 310 311 311 312 311 311 311 310 309 307 305 304 302 300 299 297 297 296 297 297 298 299 299 297 293 288 284 278
258 260 262 264 265 266 266 268 270 271 273 274 275 277 279 281 283 286 288 290 291 292 293 294 295 297 299 300 301 302 303 303 304 305 306 308 308 309 308 308 309 310 310 311 311 311 311 311 311 311 311 311 311 310 310 310 310 311 311 311 311 311 311 310 309 309 308 307 305 303 301 299 298 297 298 299 300 300 301 301 298 293 287 282 276
261 264 266 266 266 267 268 269 270 271 272 274 276 278 281 283 285 287 288 289 290 291 293 295 296 298 299 300 301 302 302 302 303 306 308 310 311 311 310 309 309 309 310 310 310 311 311 311 311 311 311 311 310 310 309 310 311 311 311 311 311 311 310 310 309 310 310 309 307 305 302 300 299 299 299 300 301 301 301 301 298 293 287 282 276
259 260 261 262 263 264 266 268 270 272 275 277 280 281 283 284 285 287 288 289 291 292 294 296 297 298 299 300 301 302 302 303 305 308 310 312 312 311 310 309 309 309 309 310 310 310 311 311 311 311 311 310 310 309 309 309 310 310 310 310 310 310 310 311 311 311 311 310 308 306 303 301 300 300 301 301 301 301 301 300 297 293 288 283 278
259 262 264 266 268 270 272 274 276 277 279 280 281 281 282 284 285 286 288 290 292 293 294 296 298 299 300 301 302 304 305 306 307 309 312 313 312 311 310 310 309 309 310 310 310 310 310 310 310 310 310 309 308 308 308 308 309 309 309 309 309 310 311 311 312 312 312 312 310 308 305 302 301 300 301 301 301 301 300 299 297 294 289 284 280
263 267 270 272 274 275 276 276 277 277 278 278 279 281 283 284 286 288 290 291 293 294 296 297 299 300 302 304 305 306 306 308 309 311 313 313 312 310 310 310 310 309 309 310 310 310 310 309 309 309 308 307 307 306 307 307 308 309 308 308 309 310 311 312 313 314 314 314 313 311 308 304 302 300 301 302 301 300 299 298 296 293 289 285 281
266 268 269 270 271 272 273 273 274 276 277 279 281 283 285 286 288 289 291 292 294 296 297 298 298 299 302 305 306 307 308 309 310 312 313 312 311 310 309 309 309 309 309 309 309 309 309 308 307 307 307 306 306 305 306 307 308 308 308 308 309 310 312 313 313 314 315 316 315 314 311 307 303 301 301 301 300 299 298 297 295 292 289 286 282
264 265 265 266 268 269 271 273 275 278 280 282 283 285 286 288 289 291 292 293 295 297 297 297 298 300 302 304 306 307 308 309 311 312 312 311 310 309 309 309 309 309 309 309 309 308 307 306 306 306 306 305 305 305 306 308 308 308 309 309 310 311 312 313 314 315 316 316 316 315 313 309 305 302 301 301 300 298 297 296 294 291 289 286 284
262 264 265 267 269 271 273 276 278 280 282 283 285 286 287 289 290 292 293 294 296 296 296 297 298 300 302 304 306 308 309 309 311 312 311 310 309 309 309 309 309 309 308 308 308 307 306 305 305 304 304 304 304 305 306 308 308 309 309 310 310 312 313 314 315 316 316 315 315 315 313 310 306 302 299 299 299 298 296 294 292 290 288 286 285
264 266 268 270 272 274 276 278 280 281 282 283 284 286 288 289 291 292 293 294 295 296 296 297 299 301 303 305 306 308 309 309 310 311 310 309 309 308 308 308 308 308 308 308 307 306 305 304 303 302 302 302 303 304 306 307 308 309 309 310 311 312 314 315 316 316 316 315 315 314 313 311 307 302 298 297 297 296 295 293 290 289 287 286 285
265 267 269 271 273 275 276 278 279 280 281 283 284 286 288 289 290 291 293 294 295 296 297 298 299 301 303 305 306 307 308 309 310 310 309 308 308 308 308 308 308 308 307 307 306 305 303 302 301 300 301 301 302 303 305 306 307 308 308 309 310 312 313 314 315 316 316 315 314 313 312 310 308 303 298 295 294 294 293 290 287 285 285 284 284
Height
10963 10963 10962 10962 10962 10962 10962 10960 10959 10958 10957 10957 10955 10953 10953 10952 10950 10949 10947 10946 10944 10942 10940 10937 10935 10933 10930 10927 10924 10921 10918 10915 10913 10910 10908 10906 10904 10902 10900 10897 10893 10890 10888 10885 10883 10880 10877 10875 10873 10871 10868 10866 10863 10859 10856 10853 10850 10846 10843 10840 10838 10836 10834 10832 10831 10829 10829 10828 10827 10825 10824 10824 10823 10823 10821 10819 10816 10815 10814 10812 10811 10809 10807 10806 10804
10959 10959 10958 10958 10958 10958 10957 10955 10955 10954 10954 10952 10951 10949 10948 10947 10946 10945 10943 10942 10940 10938 10936 10934 10932 10930 10927 10924 10920 10916 10913 10910 10908 10905 10903 10901 10899 10896 10894 10891 10889 10886 10883 10880 10877 10874 10871 10868 10865 10863 10860 10858 10855 10852 10849 10846 10842 10838 10835 10832 10829 10827 10825 10824 10823 10821 10821 10820 10819 10818 10817 10817 10816 10814 10812 10810 10808 10806 10804 10802 10802 10801 10799 10797 10795
10955 10955 10954 10954 10954 10953 10952 10950 10950 10950 10950 10948 10946 10945 10944 10942 10941 10940 10939 10938 10936 10934 10932 10930 10928 10926 10923 10919 10915 10911 10908 10906 10903 10901 10898 10896 10893 10891 10888 10886 10884 10882 10880 10877 10873 10869 10865 10862 10859 10856 10852 10849 10846 10844 10841 10838 10835 10831 10828 10825 10822 10820 10818 10817 10815 10814 10812 10811 10810 10810 10809 10808 10807 10804 10802 10801 10798 10796 10793 10791 10790 10790 10789 10787 10785
10950 10951 10950 10950 10949 10947 10947 10946 10946 10946 10945 10943 10942 10940 10939 10938 10937 10936 10935 10934 10932 10930 10928 10926 10924 10922 10919 10915 10911 10907 10904 10901 10899 10897 10894 10891 10889 10886 10884 10882 10879 10877 10875 10872 10868 10864 10861 10857 10853 10849 10845 10842 10839 10836 10833 10830 10827 10823 10820 10817 10814 10812 10811 10809 10808 10806 10805 10803 10801 10801 10800 10798 10796 10794 10793 10792 10790 10786 10783 10781 10779 10778 10777 10775 10774
10946 10947 10946 10945 10943 10942 10942 10942 10942 10941 10939 10938 10937 10936 10934 10933 10932 10931 10930 10929 10927 10925 10923 10921 10919 10916 10914 10911 10907 10904 10900 10897 10895 10893 10890 10887 10884 10881 10879 10876 10874 10871 10869 10866 10863 10859 10855 10851 10847 10843 10839 10835 10831 10828 10824 10821 10818 10816 10813 10811 10808 10806 10804 10801 10800 10799 10797 10796 10793 10791 10790 10788 10787 10784 10782 10781 10779 10776 10773 10772 10770 10768 10766 10764 10763
10941 10942 10941 10939 10938 10938 10938 10938 10938 10937 10934 10933 10932 10931 10929 10928 10927 10926 10925 10924 10923 10921 10918 10915 10913 10910 10908 10906 10902 10899 10896 10894 10891 10889 10887 10883 10880 10877 10874 10871 10868 10865 10863 10860 10857 10854 10850 10845 10841 10837 10833 10828 10824 10821 10818 10815 10812 10809 10807 10804 10801 10798 10796 10794 10792 10791 10790 10788 10786 10783 10781 10779 10777 10774 10772 10770 10768 10765 10763 10761 10759 10757 10755 10753 10751
10935 10936 10935 10933 10932 10933 10935 10935 10934 10933 10930 10928 10927 10926 10924 10923 10923 10922 10921 10920 10918 10917 10914 10910 10907 10905 10902 10899 10897 10894 10892 10889 10887 10885 10883 10879 10876 10872 10868 10865 10863 10860 10856 10853 10850 10846 10842 10838 10834 10831 10826 10822 10818 10814 10812 10809 10805 10802 10799 10797 10794 10790 10788 10786 10784 10783 10782 10781 10779 10776 10773 10771 10768 10765 10762 10760 10758 10755 10753 10752 10749 10745 10743 10741 10739
10930 10930 10929 10927 10927 10929 10930 10930 10930 10928 10926 10924 10922 10921 10920 10920 10919 10919 10918 10916 10915 10913 10910 10907 10903 10900 10896 10894 10891 10889 10887 10883 10881 10880 10878 10876 10872 10868 10864 10860 10857 10854 10850 10847 10842 10838 10834 10831 10827 10823 10820 10816 10812 10808 10804 10801 10798 10794 10792 10789 10787 10784 10781 10779 10777 10775 10774 10773 10771 10768 10765 10762 10758 10756 10754 10750 10747 10745 10742 10741 10739 10736 10732 10730 10727
10923 10923 10922 10921 10922 10924 10924 10924 10924 10924 10922 10920 10918 10916 10916 10915 10914 10914 10913 10912 10911 10910 10907 10904 10900 10894 10890 10889 10886 10883 10880 10877 10875 10874 10872 10871 10867 10864 10860 10855 10852 10848 10845 10841 10836 10831 10827 10824 10820 10816 10812 10809 10806 10802 10798 10794 10790 10786 10783 10781 10779 10776 10774 10772 10769 10767 10766 10764 10761 10758 10755 10751 10747 10745 10744 10740 10736 10734 10731 10728 10727 10724 10721 10719 10714
10917 10915 10915 10916 10917 10919 10919 10918 10918 10918 10917 10916 10914 10912 10911 10910 10909 10908 10907 10905 10905 10904 10902 10900 10897 10890 10885 10884 10882 10878 10875 10872 10869 10868 10867 10865 10862 10859 10855 10851 10846 10843 10839 10835 10830 10825 10821 10816 10813 10809 10805 10801 10799 10796 10791 10787 10783 10779 10776 10773 10770 10768 10765 10762 10759 10755 10753 10752 10748 10744 10742 10738 10734 10732 10730 10727 10724 10722 10719 10716 10715 10712 10709 10707 10703
10909 10909 10909 10909 10912 10913 10913 10912 10911 10910 10910 10909 10908 10907 10905 10905 10904 10903 10901 10899 10898 10897 10896 10895 10892 10886 10881 10881 10879 10876 10872 10867 10864 10863 10862 10860 10857 10853 10849 10845 10841 10837 10833 10829 10824 10819 10814 10809 10805 10801 10797 10794 10791 10789 10785 10781 10776 10772 10769 10765 10761 10758 10755 10752 10748 10743 10740 10739 10736 10731 10727 10724 10721 10718 10715 10714 10712 10709 10706 10703 10701 10699 10697 10694 10691
10902 10903 10903 10903 10905 10907 10907 10906 10904 10903 10903 10902 10901 10900 10898 10898 10898 10897 10896 10893 10891 10891 10890 10889 10887 10883 10880 10878 10876 10873 10869 10864 10859 10856 10855 10853 10850 10846 10842 10839 10835 10831 10827 10822 10817 10813 10808 10803 10799 10795 10791 10787 10784 10782 10778 10774 10769 10765 10761 10757 10753 10748 10745 10742 10739 10734 10730 10728 10725 10720 10715 10711 10709 10705 10702 10701 10699 10695 10692 10690 10687 10686 10683 10680 10677
10897 10897 10896 10896 10899 10901 10901 10900 10898 10897 10897 10896 10895 10893 10891 10890 10889 10889 10888 10887 10884 10883 10882 10881 10881 10879 10876 10873 10871 10869 10864 10859 10853 10849 10847 10846 10844 10839 10835 10832 10828 10825 10820 10816 10811 10806 10802 10797 10793 10789 10785 10781 10778 10775 10771 10766 10761 10757 10752 10748 10744 10740 10735 10732 10729 10727 10723 10718 10714 10709 10703 10700 10698 10694 10690 10689 10687 10683 10680 10677 10673 10670 10668 10666 10663
10893 10891 10890 10891 10892 10893 10894 10893 10892 10892 10891 10890 10889 10887 10885 10883 10881 10880 10879 10879 10877 10875 10874 10873 10872 10871 10869 10865 10863 10861 10858 10852 10846 10841 10839 10838 10836 10832 10827 10824 10820 10817 10813 10809 10804 10800 10795 10791 10787 10783 10778 10774 10770 10766 10762 10758 10753 10748 10743 10739 10735 10731 10727 10722 10718 10716 10712 10708 10704 10698 10693 10689 10687 10683 10678 10676 10674 10670 10668 10665 10660 10657 10655 10652 10648
10889 10885 10885 10885 10886 10887 10887 10887 10886 10886 10885 10883 10882 10880 10878 10875 10873 10872 10872 10872 10871 10869 10867 10866 10864 10861 10859 10856 10853 10852 10849 10845 10839 10833 10830 10828 10826 10823 10819 10815 10811 10808 10805 10800 10796 10792 10788 10784 10780 10775 10770 10767 10762 10757 10753 10749 10745 10741 10736 10731 10727 10722 10718 10713 10709 10704 10700 10696 10692 10687 10683 10678 10675 10672 10668 10665 10662 10659 10656 10653 10649 10645 10643 10640 10634
10884 10880 10880 10880 10881 10882 10881 10881 10880 10879 10878 10876 10875 10873 10871 10868 10867 10866 10865 10865 10865 10862 10860 10858 10856 10852 10849 10847 10844 10841 10840 10836 10831 10827 10823 10819 10816 10813 10809 10805 10802 10799 10795 10791 10788 10784 10780 10776 10771 10767 10764 10760 10755 10750 10745 10741 10737 10732 10728 10723 10718 10713 10708 10703 10698 10693 10688 10684 10679 10676 10673 10668 10665 10661 10658 10654 10651 10648 10645 10641 10637 10633 10632 10628 10622
10879 10876 10875 10875 10876 10877 10876 10875 10875 10873 10872 10870 10868 10866 10864 10862 10861 10859 10858 10858 10858 10856 10852 10850 10847 10844 10840 10837 10834 10831 10829 10827 10822 10819 10816 10812 10808 10804 10800 10797 10794 10791 10787 10783 10779 10776 10772 10767 10763 10760 10756 10752 10747 10742 10737 10733 10728 10723 10718 10714 10708 10703 10697 10692 10687 10682 10676 10672 10668 10665 10662 10658 10654 10650 10647 10643 10640 10637 10635 10630 10625 10622 10620 10617 10613
10873 10871 10870 10870 10871 10871 10870 10869 10869 10867 10866 10864 10862 10860 10858 10856 10855 10852 10850 10850 10850 10848 10845 10841 10839 10836 10832 10829 10826 10823 10821 10817 10813 10811 10808 10804 10800 10797 10793 10791 10788 10784 10780 10776 10771 10767 10763 10758 10754 10750 10746 10741 10736 10732 10727 10723 10718 10713 10708 10703 10697 10692 10687 10681 10676 10671 10666 10662 10658 10655 10651 10647 10643 10638 10635 10631 10627 10625 10623 10619 10613 10610 10608 10605 10601
10868 10867 10866 10865 10865 10865 10865 10864 10862 10860 10859 10857 10855 10853 10852 10850 10848 10844 10842 10841 10839 10839 10838 10833 10830 10828 10825 10821 10817 10814 10813 10809 10805 10802 10800 10796 10794 10791 10788 10785 10781 10777 10773 10768 10763 10759 10754 10749 10745 10742 10738 10732 10726 10722 10717 10712 10708 10703 10698 10693 10687 10682 10677 10672 10667 10662 10657 10653 10649 10645 10642 10638 10633 10628 10623 10618 10614 10611 10609 10605 10601 10597 10595 10591 10587
10863 10862 10861 10860 10858 10858 10858 10857 10855 10853 10851 10849 10848 10845 10844 10842 10839 10836 10834 10831 10828 10828 10827 10824 10821 10820 10817 10814 10810 10807 10806 10802 10798 10795 10792 10789 10786 10784 10781 10777 10773 10769 10765 10760 10755 10751 10746 10741 10737 10734 10730 10725 10719 10714 10709 10703 10698 10693 10688 10684 10678 10673 10668 10663 10658 10654 10648 10643 10638 10634 10631 10627 10623 10618 10612 10607 10602 10598 10595 10591 10587 10583 10580 10577 10573
10857 10855 10854 10853 10852 10851 10851 10849 10848 10846 10844 10842 10840 10838 10836 10834 10831 10829 10828 10824 10820 10818 10817 10814 10813 10812 10810 10807 10803 10800 10799 10796 10792 10788 10785 10782 10778 10776 10772 10768 10764 10760 10756 10751 10747 10743 10738 10733 10729 10726 10722 10717 10712 10707 10701 10695 10689 10684 10679 10675 10669 10665 10660 10655 10650 10644 10639 10634 10629 10624 10619 10615 10611 10607 10601 10596 10591 10587 10582 10578 10575 10571 10567 10563 10559
10848 10847 10847 10846 10845 10844 10843 10842 10841 10839 10837 10835 10832 10830 10828 10826 10824 10822 10821 10818 10815 10814 10812 10809 10808 10807 10804 10801 10797 10793 10791 10789 10785 10781 10778 10775 10770 10767 10764 10759 10755 10752 10748 10743 10738 10734 10730 10725 10720 10717 10712 10707 10703 10698 10691 10686 10680 10675 10670 10665 10660 10656 10651 10646 10640 10634 10628 10623 10618 10612 10608 10603 10599 10594 10589 10584 10580 10576 10571 10566 10563 10559 10555 10551 10548
10839 10840 10839 10839 10839 10838 10836 10835 10833 10831 10829 10827 10824 10821 10819 10818 10817 10814 10811 10811 10810 10808 10806 10804 10802 10800 10797 10794 10791 10787 10784 10781 10777 10773 10770 10767 10763 10760 10756 10752 10747 10743 10739 10734 10730 10726 10721 10716 10712 10708 10703 10697 10692 10687 10681 10676 10670 10665 10660 10655 10650 10646 10641 10635 10630 10623 10618 10613 10607 10601 10596 10591 10586 10582 10577 10573 10568 10564 10561 10556 10552 10548 10544 10540 10537
10832 10833 10833 10832 10832 10831 10830 10828 10826 10823 10821 10819 10816 10813 10812 10812 10810 10807 10803 10802 10801 10799 10798 10797 10795 10793 10790 10787 10784 10780 10776 10773 10769 10765 10762 10758 10755 10752 10748 10744 10740 10735 10731 10726 10721 10717 10713 10708 10703 10698 10693 10688 10682 10676 10671 10665 10660 10655 10650 10645 10640 10636 10631 10625 10618 10612 10606 10601 10596 10590 10585 10579 10574 10570 10565 10561 10557 10553 10550 10546 10542 10538 10534 10531 10528
10825 10826 10826 10825 10825 10825 10824 10822 10819 10815 10812 10810 10808 10805 10804 10803 10802 10800 10797 10795 10793 10791 10790 10789 10787 10785 10783 10779 10776 10773 10769 10765 10762 10758 10754 10750 10747 10744 10740 10736 10732 10728 10722 10717 10712 10708 10704 10698 10693 10688 10683 10677 10672 10666 10661 10656 10651 10645 10640 10635 10630 10626 10620 10613 10606 10600 10595 10590 10585 10580 10575 10569 10564 10560 10556 10551 10547 10544 10540 10536 10532 10528 10525 10523 10520
10818 10819 10819 10818 10818 10818 10817 10814 10811 10808 10805 10802 10800 10797 10796 10795 10793 10792 10790 10788 10786 10785 10783 10781 10779 10777 10775 10772 10769 10765 10761 10757 10754 10750 10746 10742 10738 10734 10730 10726 10722 10718 10713 10708 10703 10699 10694 10689 10683 10678 10673 10668 10663 10657 10652 10647 10642 10636 10630 10624 10619 10614 10608 10601 10594 10588 10583 10579 10574 10568 10564 10559 10554 10550 10546 10542 10538 10534 10531 10527 10523 10520 10517 10515 10513
10812 10812 10811 10810 10810 10810 10810 10807 10804 10801 10796 10793 10792 10792 10790 10788 10786 10785 10783 10781 10779 10777 10775 10774 10771 10769 10766 10764 10761 10757 10753 10749 10745 10741 10737 10733 10729 10725 10720 10716 10712 10708 10703 10697 10693 10689 10684 10679 10674 10669 10664 10659 10653 10648 10642 10637 10633 10627 10620 10614 10608 10602 10597 10592 10586 10580 10574 10569 10563 10558 10553 10549 10545 10540 10536 10532 10529 10525 10522 10519 10515 10512 10509 10508 10506
10803 10802 10801 10801 10801 10802 10802 10801 10799 10794 10788 10785 10786 10787 10785 10781 10779 10778 10776 10773 10771 10769 10767 10766 10764 10760 10758 10755 10752 10750 10746 10741 10737 10733 10728 10724 10720 10715 10711 10707 10703 10699 10693 10687 10682 10678 10673 10669 10664 10659 10654 10649 10644 10639 10634 10629 10624 10618 10611 10605 10598 10590 10585 10580 10574 10569 10564 10558 10552 10547 10542 10538 10535 10531 10527 10523 10520 10517 10514 10511 10508 10505 10502 10501 10499
10792 10792 10792 10793 10793 10793 10793 10792 10791 10787 10781 10779 10780 10780 10778 10776 10774 10772 10770 10768 10765 10762 10760 10758 10755 10752 10749 10746 10743 10742 10739 10734 10729 10724 10719 10715 10711 10707 10703 10698 10694 10690 10684 10678 10672 10668 10663 10658 10653 10648 10644 10640 10635 10630 10624 10619 10613 10607 10600 10594 10587 10579 10572 10566 10560 10555 10550 10545 10540 10536 10531 10527 10524 10521 10517 10514 10511 10509 10506 10504 10501 10499 10496 10494 10493
10782 10783 10784 10784 10785 10786 10784 10782 10781 10779 10774 10772 10772 10772 10771 10770 10768 10765 10763 10762 10759 10755 10753 10751 10747 10744 10740 10737 10734 10732 10730 10726 10722 10717 10711 10707 10702 10698 10694 10690 10685 10680 10675 10670 10664 10658 10653 10648 10643 10639 10634 10630 10625 10620 10614 10608 10603 10597 10590 10584 10578 10571 10564 10557 10551 10546 10542 10536 10531 10527 10523 10519 10516 10513 10509 10507 10504 10501 10499 10497 10495 10492 10490 10488 10487
10774 10775 10774 10773 10774 10776 10775 10772 10771 10770 10767 10765 10764 10764 10763 10762 10761 10758 10756 10754 10751 10748 10745 10742 10739 10735 10732 10728 10725 10722 10720 10717 10712 10708 10704 10699 10694 10690 10686 10681 10676 10671 10666 10661 10656 10649 10644 10638 10634 10629 10624 10619 10614 10609 10603 10598 10593 10587 10581 10575 10569 10564 10558 10551 10543 10538 10534 10528 10523 10519 10516 10512 10509 10506 10502 10500 10497 10495 10493 10491 10489 10486 10484 10483 10482
10764 10764 10764 10763 10764 10765 10764 10761 10760 10760 10759 10757 10755 10754 10753 10752 10751 10750 10747 10745 10742 10739 10736 10734 10730 10726 10723 10720 10717 10713 10710 10707 10702 10698 10694 10689 10684 10680 10676 10671 10667 10661 10656 10651 10645 10639 10633 10629 10624 10619 10613 10608 10602 10596 10591 10586 10580 10574 10569 10563 10556 10551 10547 10541 10534 10529 10525 10521 10516 10512 10508 10505 10502 10499 10496 10494 10491 10489 10487 10485 10483 10481 10479 10478 10477
10754 10754 10755 10756 10756 10755 10753 10751 10750 10750 10750 10748 10745 10743 10742 10741 10741 10740 10738 10736 10734 10731 10728 10725 10722 10718 10714 10712 10709 10705 10701 10697 10693 10689 10684 10679 10674 10670 10665 10661 10656 10651 10645 10640 10634 10629 10623 10619 10615 10610 10604 10599 10593 10586 10580 10575 10569 10563 10557 10551 10545 10539 10534 10529 10524 10519 10515 10511 10508 10504 10501 10498 10495 10492 10490 10487 10485 10483 10481 10479 10477 10476 10474 10472 10472
10746 10745 10746 10748 10747 10744 10743 10742 10742 10742 10741 10738 10734 10732 10731 10731 10731 10730 10729 10727 10725 10723 10720 10717 10714 10711 10707 10703 10700 10697 10692 10688 10684 10680 10675 10669 10664 10660 10656 10651 10646 10641 10636 10631 10625 10620 10615 10611 10606 10600 10594 10588 10582 10576 10569 10563 10558 10553 10546 10540 10536 10530 10524 10519 10515 10510 10506 10503 10499 10496 10494 10491 10489 10486 10484 10481 10479 10477 10476 10474 10472 10470 10468 10467 10467
10737 10736 10736 10738 10738 10737 10736 10736 10735 10733 10731 10729 10726 10724 10723 10723 10722 10721 10719 10719 10717 10714 10711 10708 10706 10703 10699 10695 10691 10688 10684 10680 10676 10671 10666 10660 10655 10651 10647 10642 10638 10633 10628 10622 10617 10611 10606 10601 10596 10589 10583 10578 10572 10566 10559 10552 10546 10542 10536 10530 10526 10522 10516 10511 10507 10502 10498 10495 10492 10490 10487 10485 10483 10480 10478 10476 10474 10472 10470 10469 10466 10465 10463 10462 10462
10728 10727 10727 10727 10729 10729 10728 10727 10726 10724 10722 10720 10718 10717 10716 10715 10714 10712 10711 10711 10708 10704 10702 10701 10699 10695 10691 10687 10683 10679 10676 10672 10668 10663 10657 10652 10648 10644 10640 10635 10631 10626 10620 10614 10608 10602 10596 10591 10585 10579 10574 10568 10563 10557 10551 10543 10537 10532 10526 10520 10515 10512 10508 10504 10499 10495 10492 10489 10486 10484 10482 10479 10477 10474 10472 10470 10469 10467 10465 10463 10461 10460 10458 10457 10457
10720 10719 10718 10718 10719 10720 10719 10718 10716 10714 10713 10712 10710 10710 10709 10707 10705 10704 10704 10703 10700 10695 10694 10693 10690 10686 10683 10679 10675 10671 10668 10664 10659 10654 10648 10643 10639 10635 10632 10628 10624 10619 10613 10606 10600 10594 10587 10580 10574 10568 10562 10557 10552 10547 10541 10535 10528 10523 10518 10513 10507 10503 10499 10497 10493 10489 10485 10483 10480 10478 10476 10474 10471 10469 10467 10465 10464 10462 10460 10458 10456 10455 10454 10453 10452
10714 10712 10710 10710 10711 10711 10711 10709 10707 10706 10705 10705 10703 10702 10701 10699 10697 10696 10696 10694 10691 10687 10686 10685 10682 10678 10674 10671 10667 10664 10660 10655 10651 10646 10640 10635 10631 10627 10623 10619 10615 10611 10605 10599 10592 10586 10578 10571 10565 10559 10552 10547 10542 10537 10531 10525 10519 10514 10509 10506 10501 10496 10492 10489 10487 10484 10480 10477 10474 10472 10470 10468 10466 10464 10462 10460 10458 10457 10455 10453 10451 10450 10449 10448 10448
10705 10703 10702 10702 10702 10703 10702 10701 10700 10698 10698 10697 10696 10694 10692 10691 10690 10689 10688 10685 10682 10680 10679 10676 10672 10668 10665 10662 10659 10656 10652 10647 10642 10637 10632 10627 10622 10618 10614 10610 10605 10601 10595 10589 10584 10578 10571 10564 10559 10553 10546 10539 10534 10529 10523 10518 10513 10507 10503 10499 10496 10491 10487 10483 10481 10478 10475 10472 10470 10467 10465 10463 10461 10459 10457 10455 10453 10452 10450 10448 10447 10446 10445 10444 10444
10694 10694 10694 10695 10694 10694 10694 10693 10692 10691 10690 10689 10688 10686 10684 10682 10681 10680 10679 10677 10674 10673 10672 10668 10663 10658 10655 10653 10651 10647 10642 10638 10634 10628 10623 10619 10613 10609 10605 10600 10595 10591 10585 10579 10573 10568 10562 10556 10551 10545 10538 10532 10526 10521 10516 10511 10506 10502 10498 10494 10490 10487 10483 10479 10475 10472 10470 10467 10464 10462 10460 10458 10456 10454 10452 10450 10449 10447 10446 10444 10443 10442 10441 10440 10440
10685 10685 10687 10688 10686 10685 10686 10685 10684 10683 10683 10682 10679 10677 10676 10674 10673 10671 10670 10668 10666 10665 10663 10659 10653 10648 10645 10643 10641 10637 10633 10630 10625 10620 10615 10610 10605 10600 10595 10590 10585 10581 10576 10570 10563 10558 10552 10547 10542 10536 10530 10524 10518 10512 10508 10504 10500 10496 10493 10489 10486 10482 10478 10475 10472 10468 10465 10462 10459 10457 10455 10453 10451 10449 10447 10446 10444 10443 10441 10440 10439 10438 10437 10437 10436
10676 10677 10679 10680 10678 10677 10676 10676 10676 10675 10674 10673 10671 10669 10668 10666 10664 10663 10661 10659 10657 10656 10654 10649 10644 10639 10635 10632 10630 10626 10623 10621 10617 10612 10606 10601 10595 10589 10583 10578 10573 10569 10565 10560 10554 10548 10543 10537 10532 10527 10522 10516 10510 10506 10501 10497 10494 10491 10487 10484 10481 10478 10474 10471 10468 10464 10461 10458 10455 10452 10450 10448 10446 10445 10443 10442 10440 10439 10437 10436 10435 10434 10434 10433 10433
10670 10670 10670 10670 10670 10669 10667 10667 10667 10666 10665 10664 10663 10661 10660 10658 10656 10654 10652 10649 10646 10646 10645 10640 10635 10631 10627 10623 10619 10616 10612 10609 10606 10602 10597 10591 10585 10579 10573 10567 10563 10558 10554 10549 10543 10538 10533 10527 10522 10517 10513 10508 10503 10499 10495 10491 10489 10486 10483 10480 10477 10474 10470 10467 10464 10460 10457 10454 10451 10448 10446 10444 10442 10441 10439 10438 10436 10435 10434 10433 10432 10431 10430 10430 10429
10662 10662 10661 10661 10661 10661 10660 10660 10659 10658 10656 10655 10654 10652 10651 10649 10647 10644 10641 10638 10635 10634 10634 10632 10626 10622 10619 10615 10611 10607 10603 10598 10594 10591 10586 10580 10574 10569 10564 10559 10554 10549 10544 10539 10533 10528 10524 10519 10513 10509 10505 10500 10496 10492 10489 10486 10484 10481 10479 10476 10473 10470 10466 10463 10459 10456 10453 10450 10447 10444 10442 10440 10439 10437 10436 10434 10433 10431 10430 10429 10428 10428 10427 10427 10426
10654 10653 10653 10653 10653 10653 10652 10651 10650 10649 10648 10647 10645 10643 10642 10640 10637 10634 10631 10629 10625 10623 10622 10621 10616 10611 10608 10606 10602 10597 10593 10588 10584 10581 10576 10569 10563 10558 10554 10550 10545 10539 10534 10530 10524 10519 10515 10510 10506 10502 10498 10494 10490 10487 10484 10482 10480 10477 10474 10471 10469 10466 10462 10459 10455 10452 10449 10446 10443 10441 10438 10437 10436 10434 10432 10431 10429 10428 10427 10426 10425 10425 10424 10424 10423
10646 10646 10646 10645 10645 10644 10643 10642 10641 10640 10639 10638 10636 10634 10632 10630 10628 10625 10622 10619 10616 10613 10611 10609 10605 10601 10597 10594 10591 10587 10583 10578 10575 10570 10565 10559 10552 10547 10543 10540 10536 10530 10525 10521 10516 10510 10506 10501 10498 10495 10491 10488 10485 10482 10480 10477 10475 10473 10470 10467 10464 10461 10458 10455 10451 10448 10445 10442 10439 10437 10435 10433 10432 10431 10429 10428 10426 10425 10424 10423 10422 10422 10421 10421 10421
10637 10637 10637 10637 10636 10635 10634 10632 10631 10630 10629 10628 10627 10625 10622 10620 10618 10616 10614 10610 10607 10603 10600 10598 10595 10591 10587 10584 10580 10576 10571 10568 10564 10560 10554 10548 10543 10538 10534 10530 10526 10521 10517 10513 10508 10503 10498 10494 10490 10487 10485 10482 10479 10477 10475 10473 10470 10468 10465 10463 10460 10457 10454 10451 10448 10444 10442 10439 10436 10434 10432 10430 10429 10427 10426 10425 10423 10422 10421 10420 10420 10419 10419 10418 10418
10628 10628 10628 10628 10627 10625 10624 10623 10622 10620 10619 10618 10616 10614 10613 10611 10608 10606 10604 10601 10598 10594 10590 10587 10585 10581 10578 10574 10570 10565 10560 10556 10553 10550 10544 10538 10533 10529 10525 10521 10517 10513 10508 10504 10500 10496 10491 10487 10484 10481 10478 10476 10474 10471 10470 10468 10465 10462 10460 10458 10455 10453 10450 10447 10444 10441 10438 10436 10433 10431 10428 10427 10425 10424 10423 10422 10420 10419 10418 10418 10417 10416 10416 10416 10416
10620 10620 10618 10617 10616 10615 10614 10613 10612 10610 10609 10608 10606 10604 10602 10601 10599 10596 10594 10591 10587 10584 10581 10578 10575 10571 10567 10563 10560 10555 10550 10546 10542 10539 10535 10529 10524 10519 10515 10512 10508 10503 10499 10496 10492 10488 10484 10481 10478 10476 10473 10471 10468 10466 10464 10462 10460 10458 10455 10453 10451 10448 10446 10443 10441 10438 10435 10433 10430 10428 10426 10424 10422 10421 10420 10419 10418 10417 10416 10415 10414 10414 10413 10413 10413
10611 10609 10608 10606 10606 10605 10604 10603 10602 10600 10598 10597 10595 10593 10592 10590 10588 10586 10583 10580 10577 10574 10571 10568 10565 10561 10556 10552 10549 10544 10540 10536 10531 10527 10524 10520 10515 10511 10506 10502 10498 10494 10491 10488 10485 10481 10477 10474 10472 10471 10468 10466 10463 10461 10460 10458 10455 10453 10451 10448 10446 10444 10442 10440 10437 10435 10432 10430 10427 10425 10423 10421 10419 10418 10417 10416 10415 10414 10413 10412 10412 10411 10411 10411 10411
10599 10599 10598 10597 10596 10595 10594 10593 10592 10591 10589 10586 10584 10582 10581 10580 10578 10576 10573 10570 10567 10564 10560 10557 10553 10550 10545 10541 10538 10533 10529 10525 10521 10517 10513 10510 10506 10502 10497 10493 10489 10485 10482 10480 10477 10474 10471 10469 10467 10465 10463 10461 10458 10457 10455 10453 10451 10449 10447 10444 10442 10440 10438 10436 10433 10431 10429 10427 10425 10423 10421 10419 10417 10415 10414 10413 10412 10411 10410 10410 10409 10409 10409 10409 10409